Theta_e
321 320 319 319 318 319 323 325 323 324 323 319 318 320 321 324 325 325 325 326 328 330 331 333 334 334 333 334 334 333 336 336 335 334 337 338 336 335 333 331 329 323 318 312 310 310 313 320 322 328 336 336 336 337 336 336 335 334 332 325 318 315 315 317 317 316 314 313 312 312 313 315 318 320 319 317 316 316 315 319 322 324 326 325 326 323 315 311 311 311 312 313 312 312 312 313 314
321 320 319 318 317 319 324 325 322 322 320 318 318 320 322 323 325 325 325 326 330 331 332 334 334 334 334 334 333 332 335 337 337 337 337 336 335 335 332 331 330 322 316 315 322 317 313 320 320 329 336 336 336 336 337 336 334 333 330 323 315 311 314 317 318 318 316 313 312 313 313 313 315 315 317 319 318 317 320 325 327 328 328 327 327 323 314 311 312 311 311 311 312 312 312 313 313
321 320 320 319 320 321 322 323 321 319 318 317 318 321 323 323 325 326 327 330 332 331 333 334 333 334 333 332 332 333 335 337 337 337 336 336 336 334 333 334 329 320 314 322 332 324 314 319 321 331 337 336 337 336 336 335 334 333 329 322 314 310 315 318 318 318 317 316 317 316 316 316 316 318 321 323 321 321 324 326 327 328 326 325 323 316 311 311 312 311 311 312 312 312 312 312 313
321 320 321 321 323 322 321 323 322 319 317 316 318 322 322 324 326 328 331 332 332 331 333 334 333 334 334 334 333 332 337 338 338 337 336 337 335 333 335 333 326 317 312 323 332 326 315 320 326 334 337 336 337 336 336 335 334 333 327 319 312 311 313 316 316 316 316 317 319 319 320 321 320 321 323 324 324 323 325 327 328 327 326 326 321 314 315 313 311 312 311 312 312 312 312 312 313
320 321 320 322 323 323 321 322 322 319 318 317 318 322 322 324 326 329 333 330 330 331 333 333 334 335 334 336 335 334 338 337 338 337 336 337 334 333 333 328 322 314 313 326 331 325 318 325 333 336 336 337 337 336 336 334 333 330 324 316 311 312 312 314 315 316 316 317 318 317 320 322 321 321 322 324 326 324 323 326 328 328 328 327 320 317 319 315 311 312 312 312 312 312 312 312 313
320 321 321 321 323 322 321 319 320 320 320 320 320 320 321 324 326 331 332 330 330 330 332 332 335 335 334 336 335 337 338 337 338 336 337 337 334 333 331 324 321 314 319 330 332 328 326 332 336 336 337 337 337 336 335 333 331 327 322 316 310 311 313 313 315 317 316 317 318 319 322 323 322 321 322 324 325 325 324 324 325 326 326 325 321 318 316 313 312 312 312 312 312 313 313 313 314
320 322 323 322 322 321 321 319 320 321 320 320 320 320 321 324 328 330 330 330 329 329 330 332 335 333 335 336 335 336 336 336 338 336 337 336 333 331 328 324 321 315 323 332 332 332 333 335 335 336 337 336 336 335 335 333 331 327 321 315 309 310 312 314 318 319 316 318 320 322 324 322 322 322 322 323 323 325 325 324 325 325 326 325 323 318 313 312 313 313 313 313 314 314 314 314 314
320 322 323 323 324 321 320 320 321 322 321 320 320 320 321 325 327 328 328 329 328 329 330 332 333 331 335 335 336 337 334 335 337 337 337 335 332 330 328 325 318 314 326 333 332 333 333 334 335 336 336 336 336 335 334 333 331 326 319 314 309 310 311 314 318 318 316 319 322 323 322 320 321 320 319 320 323 325 324 323 325 325 325 322 318 314 313 314 314 314 314 314 314 314 314 314 314
320 322 323 323 324 322 318 319 321 321 321 320 320 319 321 325 327 327 327 327 327 328 329 331 332 330 333 333 336 337 334 336 337 337 336 334 333 331 329 326 316 313 327 333 331 332 333 334 334 335 335 335 335 334 334 331 329 323 316 313 309 309 311 315 316 314 315 316 317 319 320 319 319 318 316 316 319 323 323 323 322 321 320 317 314 313 314 314 314 315 314 315 315 315 315 315 315
322 322 323 324 324 321 317 317 320 321 321 320 321 320 321 324 327 328 327 326 325 326 330 331 331 330 332 334 337 337 336 336 336 336 335 334 333 330 328 326 315 314 329 333 332 333 333 333 334 334 334 334 334 332 330 326 324 320 315 311 308 308 310 313 315 312 313 312 312 314 316 317 317 317 316 314 316 321 324 323 319 317 315 314 314 314 315 315 315 315 315 315 315 315 316 316 316
322 323 322 323 323 320 317 316 320 321 321 321 321 321 321 325 327 327 327 325 324 328 332 330 330 329 330 335 338 337 336 336 336 336 334 333 333 329 325 321 313 317 330 333 332 332 332 333 334 334 333 333 331 328 326 320 318 318 314 309 308 309 310 313 314 312 311 311 310 312 315 316 317 317 316 316 317 321 323 322 318 315 314 314 315 315 316 316 315 315 315 316 316 316 317 317 318
322 324 323 323 323 322 319 317 319 321 322 321 321 321 323 326 327 326 325 324 323 327 330 329 330 330 330 334 338 336 335 336 336 335 334 333 332 329 323 315 311 321 332 333 331 331 331 332 332 332 332 331 329 326 323 318 314 315 312 308 308 309 310 311 313 313 311 310 310 313 315 316 317 316 315 315 316 319 321 321 319 315 314 315 316 316 316 316 315 316 316 317 317 318 318 318 319
323 324 324 323 324 324 321 318 319 321 321 323 322 321 323 326 326 325 324 323 323 325 327 329 329 328 330 336 337 336 336 336 336 334 334 333 330 326 321 314 310 320 331 331 330 331 331 331 331 331 331 329 328 325 321 317 313 312 310 308 309 309 309 310 312 313 311 309 310 312 314 315 315 315 314 315 315 316 316 317 317 315 315 316 316 316 315 316 316 316 317 318 318 318 319 319 319
324 324 323 324 325 325 323 319 318 319 321 323 322 322 324 326 325 324 323 322 322 325 328 329 328 329 331 335 337 336 336 335 335 334 333 333 329 323 320 315 310 316 326 329 330 331 330 330 329 330 329 328 325 321 318 315 311 309 309 309 309 310 309 310 311 311 309 309 310 311 313 314 314 315 315 315 315 315 314 315 316 316 316 315 315 315 315 316 316 317 318 318 319 319 319 318 319
323 323 322 324 324 324 323 320 319 319 320 322 321 322 325 324 322 323 323 322 324 325 326 326 326 329 329 331 336 337 336 335 335 333 333 333 327 323 321 314 309 311 319 325 328 330 331 330 329 329 329 329 325 322 317 313 311 310 309 309 309 309 309 310 312 310 309 309 310 312 313 314 315 316 316 316 316 315 315 315 315 316 315 315 315 316 316 317 317 318 318 319 319 318 319 318 318
320 322 323 323 323 323 323 321 319 319 320 320 320 321 324 323 321 322 323 323 325 324 323 326 326 327 329 332 337 337 335 334 334 333 333 332 328 325 322 316 311 310 315 320 321 323 328 330 329 329 329 329 328 325 322 315 312 311 309 309 309 309 309 310 311 310 308 309 311 313 314 315 316 316 316 316 316 316 316 316 316 315 315 315 316 316 317 317 318 318 318 319 318 318 319 319 319
319 322 323 322 323 324 322 321 319 318 319 319 320 321 323 323 321 321 321 322 324 324 324 329 326 325 329 329 335 338 334 332 332 331 332 333 330 327 323 319 315 312 315 317 314 314 320 323 323 327 329 329 329 327 326 319 312 312 309 309 309 308 309 309 310 309 308 309 311 314 314 315 316 317 317 317 317 316 316 316 316 316 316 316 317 317 317 318 318 318 318 318 318 319 319 319 319
320 323 323 323 325 324 322 321 319 319 319 318 319 320 323 323 321 321 321 321 323 325 324 328 325 324 327 324 331 337 335 332 331 331 332 333 331 328 323 320 318 314 315 316 313 310 311 312 312 318 323 325 327 328 328 320 312 313 310 308 309 308 309 308 308 309 308 309 312 315 316 316 318 318 317 317 317 316 316 316 316 316 316 317 317 317 318 318 318 318 318 318 319 319 319 320 320
321 322 323 324 324 321 320 319 318 319 318 318 318 319 322 322 322 321 321 322 323 324 323 327 326 325 328 322 328 336 335 333 332 332 333 333 331 329 325 321 318 317 315 314 314 311 309 309 308 310 312 315 320 324 328 321 312 315 311 309 310 308 309 308 308 308 307 309 312 316 318 318 319 320 317 317 317 316 317 316 317 317 317 317 318 318 318 318 318 318 318 318 319 319 320 320 320
321 320 323 323 321 319 318 319 317 317 317 318 318 317 319 320 321 321 321 322 322 323 322 325 326 327 330 324 328 335 334 334 334 333 334 333 331 331 329 324 319 318 316 315 315 313 312 311 310 310 309 309 311 317 323 320 315 317 313 309 310 308 309 308 308 308 308 310 312 317 320 318 318 318 317 317 317 317 317 317 317 317 317 318 318 318 318 318 318 318 319 319 319 319 320 319 319
322 321 323 320 319 319 317 317 316 315 316 317 318 317 318 318 319 321 321 321 321 323 321 323 323 325 332 326 327 334 334 335 334 334 334 332 331 331 331 328 324 320 317 317 316 315 314 313 312 311 310 309 310 312 315 315 316 316 312 310 310 309 309 308 308 308 308 310 312 318 320 316 316 317 317 317 317 317 318 317 317 318 318 318 318 319 318 319 318 318 319 319 319 319 319 320 320
323 323 322 318 318 318 316 315 314 314 315 316 318 317 317 318 318 319 320 320 321 322 320 322 321 323 330 325 325 330 332 335 335 334 334 332 331 330 331 332 329 324 319 318 318 316 315 315 314 312 311 310 310 311 311 311 312 313 311 310 310 310 309 307 308 308 308 311 313 316 317 316 316 317 317 317 317 317 318 318 318 318 318 318 318 318 318 319 319 319 320 320 319 320 320 320 321
323 324 321 319 318 317 315 314 314 313 315 316 317 317 316 317 317 318 319 320 320 320 320 320 320 325 329 325 322 325 328 333 333 332 333 332 331 329 330 333 332 327 322 319 319 318 317 316 315 314 313 311 310 310 310 310 310 312 312 311 311 311 309 308 308 307 308 311 313 315 315 316 317 317 317 317 317 317 318 318 318 318 318 318 318 318 318 319 319 319 320 320 320 320 321 321 322
324 325 322 320 317 317 315 314 314 313 314 315 315 315 316 317 317 318 318 319 320 319 319 318 319 326 329 324 320 321 322 325 329 331 333 333 332 331 331 333 333 331 326 321 319 319 318 318 316 316 315 314 312 310 310 311 311 313 313 313 313 312 310 309 308 309 310 311 313 315 315 316 316 317 317 317 317 317 317 318 318 318 318 319 319 320 319 318 319 319 319 320 320 321 322 323 323
324 325 322 319 317 318 316 315 316 313 314 314 314 316 317 317 316 317 317 317 319 319 319 318 318 322 325 324 320 320 321 322 327 331 332 333 334 333 333 333 333 333 331 326 322 320 319 319 318 317 317 316 315 313 312 312 313 314 315 315 315 315 313 312 312 312 313 313 314 315 316 317 317 317 317 318 318 318 318 318 318 318 319 319 320 320 320 320 320 320 321 321 322 323 324 324 324
324 325 321 318 318 319 317 318 319 314 314 314 316 320 319 316 315 316 317 317 318 319 319 318 317 318 322 327 325 322 323 322 324 327 330 333 334 334 333 332 332 333 332 330 327 323 321 320 319 318 318 318 317 316 314 314 315 316 317 317 318 319 318 317 317 317 317 317 317 317 318 319 319 319 319 319 319 320 320 320 320 320 320 320 320 321 321 321 321 322 323 323 324 323 324 324 324
322 324 321 319 321 321 318 321 322 317 317 317 319 322 320 315 314 317 318 317 318 319 320 318 318 320 321 327 329 327 327 324 322 326 331 332 332 332 333 333 333 333 332 332 330 327 325 322 320 319 319 318 318 317 317 316 316 317 318 319 320 320 321 321 321 321 321 321 320 320 320 320 321 321 321 322 321 321 322 322 322 323 323 322 322 322 322 323 323 323 324 324 324 324 323 324 323
320 321 321 322 323 323 320 321 323 321 321 319 318 321 321 316 314 317 318 316 317 318 321 321 320 322 323 325 329 329 329 330 330 331 330 328 326 327 330 331 332 333 332 331 330 328 326 325 323 321 319 319 319 319 318 318 318 318 319 319 320 321 322 322 322 322 322 322 321 321 322 322 322 323 323 323 323 323 323 323 323 323 323 323 323 323 323 324 323 324 324 324 324 324 323 323 323
320 320 322 324 322 323 323 321 320 321 322 319 318 321 322 319 315 317 318 316 317 318 322 323 321 322 324 326 327 324 325 331 333 329 324 323 324 324 325 326 328 330 330 329 329 327 326 325 325 324 321 320 319 319 319 319 319 319 319 320 320 320 321 321 322 322 322 322 322 322 322 322 322 323 323 323 323 323 323 323 323 324 323 323 324 324 323 324 324 324 324 324 324 324 323 323 323
323 323 324 324 324 324 324 322 318 319 320 317 320 324 323 321 319 319 318 317 317 318 321 322 322 323 325 327 326 321 319 325 327 322 319 321 323 324 324 325 325 326 328 328 327 326 325 324 324 325 324 322 321 320 319 319 319 319 319 320 320 320 320 321 321 321 321 321 322 321 322 322 322 322 322 322 323 323 323 323 323 324 324 324 324 324 324 324 325 324 324 324 324 323 323 323 322
324 324 324 325 328 325 320 320 319 319 319 316 321 325 324 323 320 318 318 317 317 318 319 321 322 322 325 327 325 323 320 319 318 317 317 318 320 322 323 326 326 323 325 327 326 324 324 322 323 324 324 324 323 322 321 320 320 319 319 319 319 320 320 320 320 321 321 321 321 321 321 321 322 322 322 322 322 322 322 322 323 324 325 325 324 323 324 324 324 324 324 323 323 323 323 323 323
324 326 327 327 328 324 318 319 319 319 317 315 322 325 323 324 321 316 316 317 317 318 318 319 321 322 323 324 324 325 324 319 316 317 317 316 318 319 320 323 325 322 322 324 325 324 324 323 321 322 323 324 324 324 324 323 322 320 320 319 319 319 319 320 320 320 321 321 321 321 321 321 322 323 323 323 322 322 322 323 324 325 325 325 325 323 324 323 322 323 323 322 322 323 323 323 322
324 326 328 328 327 326 322 318 315 316 316 314 321 324 320 320 319 315 314 315 317 318 318 318 320 322 323 324 324 325 325 322 317 316 317 316 316 317 318 320 321 320 320 322 323 321 322 324 322 321 322 323 324 324 325 325 325 324 322 321 320 319 319 319 320 321 321 322 322 322 322 321 322 323 324 324 323 323 323 324 325 325 325 325 324 323 324 323 323 322 322 322 322 322 322 322 322
325 325 327 328 326 326 324 318 314 315 315 314 318 321 319 319 318 316 314 315 317 317 318 318 319 321 322 323 323 322 324 323 318 314 316 316 315 316 317 317 318 318 318 319 320 320 321 322 322 321 321 322 323 323 324 325 325 326 325 325 323 322 321 320 321 321 322 323 323 324 323 322 323 324 324 324 324 324 324 325 325 326 325 324 323 323 323 324 323 322 322 323 322 322 322 322 322
326 326 326 327 325 324 325 321 315 314 315 316 317 318 318 317 318 318 317 315 316 317 317 318 318 319 320 322 322 322 322 322 318 314 315 315 315 315 315 316 316 316 317 317 318 319 319 320 321 321 321 321 322 322 323 324 324 325 326 326 326 325 323 322 322 322 323 324 325 325 325 324 324 325 325 325 325 325 325 325 325 325 325 324 323 323 323 323 323 323 323 323 323 322 322 321 319
328 327 326 327 326 323 325 321 315 314 315 316 318 318 317 317 318 319 319 317 316 317 316 317 317 317 318 320 322 321 319 318 317 314 314 315 314 315 315 315 315 315 316 316 316 317 317 318 319 320 321 320 321 322 322 323 324 324 325 325 325 325 323 322 323 323 324 325 326 327 326 325 325 325 325 325 325 325 325 324 325 325 325 325 324 324 323 324 324 323 323 323 323 323 322 321 320
328 327 326 327 326 325 325 320 314 314 317 318 319 320 319 318 318 318 320 318 316 317 317 317 317 317 318 318 319 320 318 316 316 315 314 314 314 315 315 314 315 315 315 315 315 315 316 316 317 318 318 319 321 322 322 322 323 324 324 324 324 324 323 321 322 323 324 326 326 326 326 325 325 325 325 325 325 325 324 325 325 326 325 325 325 324 324 324 324 324 324 323 323 323 322 321 322
326 326 326 326 326 325 322 318 314 313 317 320 321 320 319 319 318 318 319 318 317 317 317 317 317 317 318 318 319 319 317 315 315 315 314 314 314 314 315 314 314 315 315 315 315 315 315 315 315 315 316 317 319 320 321 322 322 322 323 323 324 324 323 322 322 323 324 326 326 326 326 326 325 325 324 324 324 325 325 325 326 326 326 325 325 325 324 324 324 324 324 324 323 323 321 320 323
325 326 325 325 326 324 320 316 313 312 315 320 320 318 318 318 318 319 319 319 319 318 317 317 317 317 318 318 318 319 318 316 315 315 315 315 314 314 314 314 314 314 314 314 314 315 314 315 315 315 315 315 316 317 319 320 320 320 321 322 323 323 323 323 322 322 323 325 326 326 326 326 326 327 326 325 325 326 326 327 327 327 326 326 325 325 325 325 324 324 324 325 324 323 322 320 321
326 326 326 326 325 324 323 318 314 314 315 317 317 316 316 317 318 318 318 319 319 318 318 317 317 317 318 318 318 318 317 316 316 316 316 315 315 314 314 314 314 314 314 314 314 314 314 314 315 315 315 314 314 315 316 317 319 320 320 321 322 322 323 323 323 323 323 323 324 325 326 326 327 327 327 326 326 326 327 328 327 327 327 326 326 325 325 325 325 324 324 325 324 323 321 319 318
327 327 326 326 324 323 322 317 314 314 314 314 315 317 319 320 321 320 319 319 319 319 318 317 317 317 316 317 317 317 317 316 316 316 316 316 315 315 315 315 315 314 315 314 314 314 314 314 314 314 315 314 314 314 314 315 316 317 319 321 322 323 323 323 323 323 322 322 323 324 325 325 325 325 326 326 327 327 326 327 327 327 327 326 326 325 325 325 324 324 324 325 324 322 320 319 320
327 327 326 326 325 323 321 317 317 319 319 314 314 319 322 322 322 322 322 321 320 320 319 318 317 317 316 316 316 316 316 316 317 316 316 316 316 316 316 315 315 315 316 315 315 315 314 314 314 314 314 314 314 314 314 314 314 315 316 318 319 321 322 322 322 322 321 321 321 322 323 324 324 324 324 324 326 326 326 326 326 326 326 326 326 325 325 325 324 325 325 325 324 321 319 320 322
327 326 324 325 325 323 321 320 321 324 323 315 312 319 322 320 321 321 321 321 321 321 320 318 318 318 317 316 316 316 317 317 317 317 317 316 317 317 317 316 316 316 317 316 316 315 315 314 314 313 313 313 313 313 314 313 313 314 314 315 315 316 317 318 319 320 320 320 321 321 321 322 322 322 323 323 325 326 325 325 325 324 324 325 326 325 324 325 325 325 325 325 323 321 319 319 321
327 324 323 324 324 323 322 321 323 323 321 317 314 316 319 319 319 320 319 319 320 320 319 318 318 318 317 317 317 316 317 317 318 318 317 317 317 317 317 317 317 317 316 316 316 315 315 315 314 314 314 313 313 313 314 313 313 314 314 314 314 314 314 315 317 318 318 318 320 321 321 320 320 321 322 323 323 325 325 325 324 323 323 323 325 326 325 325 325 325 324 323 321 320 320 320 320
324 321 322 323 323 323 322 322 324 321 320 323 319 315 319 321 319 319 319 318 319 319 319 319 318 318 317 317 317 317 317 317 317 318 318 318 317 317 317 317 317 316 316 316 315 315 315 315 315 314 314 314 313 313 313 313 313 313 314 314 314 314 314 314 315 316 316 316 317 319 320 319 319 319 320 321 322 323 324 324 323 322 322 324 326 325 325 325 324 323 321 320 321 321 321 321 322
320 319 321 321 321 322 321 323 324 321 320 325 323 317 320 323 320 320 320 318 318 319 319 320 320 319 318 317 317 317 317 317 317 317 318 318 318 317 317 317 317 316 316 316 315 315 315 315 315 315 314 314 314 314 314 313 313 313 313 314 314 314 314 314 315 315 315 315 315 316 319 318 318 318 318 319 321 323 323 323 323 321 323 328 328 325 324 324 322 320 319 320 321 321 321 323 323
320 320 321 321 321 320 320 321 321 323 324 324 324 319 318 322 322 320 321 319 318 319 320 321 322 321 320 318 317 317 317 316 316 316 316 317 317 317 317 317 317 316 316 316 315 315 315 315 315 314 315 314 314 314 314 314 313 313 313 313 313 313 314 314 314 315 315 315 315 316 317 317 317 317 317 318 319 322 323 323 323 322 324 329 328 324 323 322 321 320 321 322 321 320 322 325 325
320 322 322 323 322 320 321 320 319 325 327 322 321 320 318 321 322 320 320 318 317 319 320 320 321 321 321 320 318 317 316 315 315 315 315 315 315 315 315 315 315 315 315 315 315 315 315 315 315 315 315 314 314 314 314 314 314 313 313 313 313 313 313 314 314 314 314 314 315 316 317 317 316 317 317 317 318 320 321 322 323 322 323 325 325 323 322 320 321 322 322 322 322 321 323 326 325
321 322 323 325 324 322 326 324 321 326 326 317 315 318 318 320 320 319 319 318 317 318 318 319 320 320 320 319 318 317 315 315 315 314 314 314 313 313 313 314 314 314 314 313 314 314 314 314 315 315 315 314 314 314 314 314 314 313 313 313 313 313 313 314 314 314 314 315 315 316 318 316 315 315 315 316 316 317 321 323 324 323 323 322 322 323 322 320 320 321 322 323 323 322 322 322 323
320 322 324 326 324 325 329 327 324 326 322 313 312 316 318 319 318 318 318 318 319 318 317 318 318 318 317 316 316 315 314 314 313 313 313 313 313 313 313 313 313 313 313 313 313 313 313 314 313 314 314 314 314 314 314 314 313 313 313 313 313 312 312 314 315 315 315 315 315 316 317 315 314 314 314 315 316 317 320 323 324 325 325 324 324 324 322 319 320 322 325 325 325 323 321 320 321
319 321 323 324 324 327 329 327 326 325 318 312 314 319 321 319 317 316 315 316 317 316 315 315 315 315 315 314 314 313 313 313 313 313 314 314 315 315 314 313 313 313 313 313 313 313 313 313 313 313 313 314 314 314 314 314 313 313 313 313 312 312 313 314 316 317 316 316 317 317 316 315 314 314 313 315 316 319 321 323 325 326 327 327 327 326 323 320 321 325 327 327 326 324 321 321 323
320 319 322 324 323 324 323 320 320 320 318 315 315 318 320 318 316 315 315 316 315 315 314 314 314 314 313 314 314 314 314 314 315 314 315 315 315 314 314 314 313 313 313 313 313 313 313 313 313 314 313 313 313 313 313 313 313 313 313 312 312 312 314 315 316 317 316 316 317 317 316 316 316 315 315 315 316 319 321 323 326 327 328 328 328 327 324 321 322 325 326 325 325 323 320 319 320
320 320 322 322 320 321 321 318 315 316 322 322 316 316 318 317 318 318 317 316 315 316 315 314 314 314 313 313 313 314 315 314 314 313 313 313 313 313 313 313 314 314 313 313 313 313 313 313 313 314 313 313 313 312 312 312 312 312 312 312 312 312 314 315 315 316 316 317 317 317 317 317 317 317 317 317 317 319 321 324 326 327 327 326 327 327 325 323 323 323 323 323 323 321 318 318 317
319 321 322 318 317 318 318 320 319 318 324 323 318 318 319 318 320 319 318 318 317 317 316 316 315 314 315 314 312 313 313 312 312 312 312 312 312 312 312 312 313 314 313 313 313 313 313 313 313 313 313 313 313 312 311 311 310 311 311 311 311 312 313 313 314 315 316 317 317 317 317 317 317 318 319 320 320 321 323 325 327 326 326 326 326 326 325 324 323 323 322 321 320 319 318 317 315
316 319 319 318 320 320 318 321 321 321 325 324 319 318 318 318 319 318 318 318 318 318 318 317 316 315 315 314 313 314 313 312 312 311 311 312 312 312 312 312 313 313 313 312 312 313 312 313 313 313 313 313 312 312 311 311 310 310 311 311 311 311 312 312 313 314 315 316 316 315 316 316 317 318 319 321 322 323 324 326 326 326 325 325 326 326 325 324 323 323 321 320 320 320 319 317 315
313 315 317 318 320 320 320 321 321 321 324 324 321 318 317 319 319 319 318 316 316 317 317 317 317 317 316 315 315 314 313 312 311 311 311 311 312 312 312 312 312 312 312 312 312 312 312 313 313 313 313 313 313 313 312 312 311 311 311 311 312 312 312 312 312 313 313 314 314 314 314 315 316 318 320 321 323 325 325 325 326 327 326 325 326 326 325 324 324 322 319 318 319 319 318 317 316
314 315 317 318 316 316 318 319 319 320 322 323 323 321 319 318 319 320 319 317 317 317 317 318 319 318 316 315 314 312 311 311 311 311 312 312 312 312 312 312 312 312 312 312 312 312 312 312 312 312 312 312 312 312 312 312 312 312 312 312 312 312 312 312 312 312 312 312 312 313 313 314 316 318 321 322 324 325 325 325 326 327 328 328 327 326 325 324 323 320 317 318 318 319 319 318 315
316 316 317 318 317 316 319 321 319 317 318 319 320 321 320 317 317 319 319 318 318 318 319 319 319 317 316 314 313 311 311 311 311 311 311 312 312 312 312 312 312 312 312 312 312 312 312 312 312 312 311 311 311 311 311 312 312 312 312 312 312 312 312 312 312 312 312 313 313 313 314 315 317 319 321 323 324 325 325 325 325 325 327 329 329 327 325 323 321 319 319 319 319 321 321 317 312
Wind_Speed
3 5 5 5 5 6 6 5 5 3 3 1 3 1 4 4 2 4 6 4 4 6 4 4 7 4 1 4 4 6 11 9 5 2 3 7 13 12 12 13 10 8 5 6 8 10 13 15 14 11 10 9 8 7 6 5 5 5 4 5 5 4 3 4 6 7 9 9 9 8 8 7 6 5 4 2 3 5 8 11 13 14 14 15 16 15 15 15 14 14 14 14 14 14 14 13 13
3 5 5 6 5 5 4 3 4 2 3 2 4 2 6 4 3 4 6 3 5 8 6 6 6 3 3 5 3 2 9 13 10 10 8 12 15 12 13 13 9 8 6 7 8 10 15 17 14 12 10 9 8 7 6 5 5 5 4 5 5 4 6 7 8 9 9 9 9 8 7 7 7 6 5 6 7 10 13 14 16 15 14 14 14 14 14 15 14 14 14 14 14 14 14 14 13
3 5 5 7 5 6 5 4 4 2 2 1 4 4 5 4 3 4 6 7 9 9 7 6 6 3 1 1 1 2 5 8 11 12 11 13 13 13 13 13 11 9 8 10 9 9 16 18 15 12 10 10 9 8 6 5 4 4 5 5 5 5 7 9 9 9 8 8 8 8 8 8 9 10 11 10 11 13 15 15 16 14 13 13 12 13 15 14 14 14 14 14 14 14 14 14 14
3 4 5 7 7 6 5 4 3 4 1 2 3 5 4 3 4 7 9 9 8 8 7 6 5 3 3 0 2 1 5 7 9 9 12 12 11 15 15 13 13 10 10 13 10 9 16 18 15 12 11 10 9 8 6 4 3 3 4 5 5 5 7 8 8 9 8 8 8 9 9 10 11 11 12 12 13 14 15 16 16 14 14 13 12 14 15 14 14 13 14 14 13 13 13 14 14
2 5 4 6 8 3 3 3 3 4 2 3 2 5 3 2 6 8 9 8 7 6 5 6 4 3 4 2 3 1 4 5 7 8 13 11 13 14 15 15 13 10 11 13 10 11 17 17 15 13 11 10 9 8 6 4 3 3 3 4 5 5 7 7 7 8 8 8 8 9 10 11 11 12 13 12 12 13 14 16 14 14 13 12 12 13 14 14 14 13 14 14 13 14 14 14 14
3 5 5 5 6 3 3 4 3 1 5 4 3 5 3 3 7 9 9 8 6 3 3 6 2 2 4 2 1 3 3 4 6 8 11 10 14 15 16 15 12 11 13 13 10 12 17 16 14 13 11 11 9 7 5 4 4 3 3 5 5 5 6 7 7 7 8 9 9 10 11 10 11 11 12 12 13 13 13 15 14 14 13 13 12 12 13 13 13 13 14 14 14 14 15 15 15
2 5 5 5 4 2 5 4 2 1 5 4 4 4 3 5 7 9 9 7 4 3 3 4 1 2 3 3 3 2 3 5 7 8 10 11 15 16 16 15 12 13 14 12 10 13 17 15 14 13 11 10 9 6 3 3 2 2 3 4 4 4 6 6 8 7 8 10 10 10 10 10 11 11 12 13 13 13 13 14 15 14 13 13 12 12 13 13 13 13 14 14 14 14 15 15 15
2 5 5 5 3 3 4 3 1 2 5 3 3 4 3 6 8 8 8 5 5 5 5 5 2 4 2 3 2 2 3 7 9 10 11 12 16 15 15 13 13 14 13 12 11 14 16 14 14 13 12 10 8 5 3 2 1 1 2 4 4 4 5 6 8 8 8 10 9 9 9 10 11 11 12 13 13 13 12 13 14 13 12 12 12 12 13 13 12 13 13 14 14 14 14 15 14
3 5 5 5 4 2 3 2 0 2 4 3 3 3 3 5 7 7 7 4 4 5 6 6 4 3 3 3 3 4 3 7 11 10 11 14 16 15 15 12 13 15 13 11 12 15 14 13 14 13 12 9 7 4 2 1 1 0 2 3 3 4 4 5 7 7 8 9 8 9 9 10 10 11 12 12 12 12 12 12 13 13 12 12 12 13 13 12 12 12 13 14 14 14 14 14 14
5 5 5 4 4 2 3 3 2 2 4 3 3 5 4 6 6 6 6 4 3 4 5 5 4 4 1 2 3 4 5 8 10 11 14 16 15 14 14 13 13 15 13 11 13 14 12 12 14 13 11 9 6 4 2 1 1 1 1 2 3 3 3 4 6 7 7 7 7 8 9 10 10 11 12 12 11 12 12 12 12 13 12 12 12 12 12 12 12 12 13 13 14 13 13 13 13
6 4 4 4 4 4 2 2 3 3 4 3 3 5 5 8 7 6 5 3 3 3 5 5 5 5 3 1 4 3 5 10 11 12 16 15 14 14 14 15 15 14 12 13 14 13 13 12 12 12 11 9 6 4 2 1 1 2 1 2 2 3 2 3 5 7 8 6 6 7 9 9 10 11 11 12 12 12 11 11 12 13 13 12 12 12 12 11 11 12 12 13 13 13 13 13 13
6 3 3 4 4 3 1 0 2 3 3 3 5 6 6 8 7 6 5 3 4 4 5 7 2 2 5 2 5 4 6 11 12 13 15 14 14 14 14 15 15 14 11 13 13 12 14 12 11 10 10 9 6 5 3 1 2 3 2 2 2 2 2 2 4 7 8 7 7 7 9 9 10 11 12 12 12 12 11 11 11 12 13 12 12 11 11 11 11 11 12 12 12 12 12 12 13
6 2 4 4 3 2 2 1 1 2 2 4 6 5 7 9 7 5 5 3 5 4 5 6 1 1 4 3 6 7 10 13 13 15 15 13 14 14 13 14 15 14 11 11 11 12 14 13 11 10 10 9 7 6 3 2 3 4 3 2 3 2 2 2 4 7 8 8 8 8 9 10 11 12 12 12 11 10 11 11 11 12 12 11 11 11 11 11 11 11 12 12 11 11 11 12 12
4 2 4 3 1 2 2 2 1 3 2 6 6 5 7 7 4 3 4 4 4 3 5 6 2 3 3 4 7 10 13 16 15 15 15 12 14 15 14 14 14 13 10 10 11 12 14 13 12 11 9 8 8 7 5 4 5 4 3 3 3 2 2 3 4 8 10 9 9 9 10 11 12 12 12 12 10 10 10 11 11 11 11 11 11 10 10 11 10 10 11 11 10 10 10 10 11
2 2 5 4 2 3 3 1 1 3 3 6 4 4 7 4 2 2 3 2 3 4 4 6 5 2 1 2 6 12 17 17 16 15 14 13 15 14 14 14 14 13 12 11 10 11 14 14 12 11 10 8 7 7 8 7 6 5 4 4 3 3 3 3 5 9 10 10 10 10 11 11 11 11 11 11 10 10 10 10 10 10 10 10 10 9 9 9 9 9 10 10 9 9 9 9 9
1 2 4 4 4 3 3 2 2 3 4 7 3 3 6 4 2 3 3 2 2 5 5 3 7 3 4 3 7 11 18 18 17 16 15 14 14 13 13 14 13 13 12 12 11 11 13 12 12 11 11 10 8 7 8 9 8 6 5 5 4 4 4 4 6 10 11 11 11 10 11 11 11 11 10 9 9 9 9 9 9 9 9 9 9 8 8 8 8 8 8 8 8 8 8 8 8
1 3 4 4 5 3 3 3 2 1 5 8 3 3 6 4 4 5 4 4 2 5 6 3 8 7 2 3 8 11 16 18 19 18 16 14 13 13 13 14 14 15 13 12 13 13 12 12 11 11 11 12 11 8 7 10 9 6 6 6 6 5 6 6 8 10 11 11 11 11 11 11 10 10 10 9 9 8 8 8 8 8 8 8 7 6 6 6 6 7 7 7 6 6 6 6 7
1 3 5 5 5 2 2 3 3 1 4 7 4 3 6 3 4 5 4 7 6 4 7 6 8 10 7 5 9 12 16 18 21 20 18 15 13 13 14 15 15 15 15 14 15 14 13 12 12 11 10 11 12 11 8 10 11 8 8 8 7 7 7 8 9 10 11 11 11 11 11 11 10 9 9 9 8 8 8 8 7 7 6 6 5 5 5 4 5 5 5 5 5 5 5 5 6
1 2 4 4 0 4 6 6 5 4 4 4 4 2 5 2 2 5 5 7 9 7 8 9 9 10 12 10 9 14 15 17 19 20 19 16 15 14 14 16 16 16 16 16 15 15 14 12 12 12 11 10 11 12 10 10 12 10 9 9 9 9 9 9 9 10 11 11 12 11 9 10 9 8 9 8 8 8 7 7 7 6 5 4 3 3 3 3 3 4 4 4 4 5 5 5 7
2 1 4 2 4 6 6 5 6 6 4 3 4 2 3 4 1 3 5 8 8 9 9 10 11 11 13 13 12 15 14 17 18 18 18 17 17 15 14 15 16 16 16 15 14 14 14 13 13 12 11 11 11 13 12 11 12 11 10 11 10 10 10 10 10 10 11 11 12 9 8 10 9 8 9 8 8 7 7 6 6 5 4 3 2 1 1 2 2 3 3 4 4 5 6 6 7
3 3 3 2 3 3 6 5 5 5 4 4 3 1 2 3 4 6 7 8 7 9 9 9 11 11 15 14 15 17 16 17 18 19 18 18 20 17 14 13 14 16 16 16 14 13 13 13 13 13 12 12 12 13 13 13 13 12 12 13 12 11 10 10 10 11 11 11 11 9 8 10 9 8 9 8 7 7 6 5 5 4 3 2 1 1 1 1 2 3 4 5 6 7 7 7 8
4 4 2 4 1 1 6 4 4 3 4 3 3 2 2 1 5 9 10 9 4 2 2 4 6 7 14 15 16 18 17 18 18 20 20 19 21 19 16 13 12 16 18 17 15 13 12 12 12 13 12 13 13 14 14 15 14 14 14 15 14 13 12 12 12 11 11 11 11 9 9 9 8 8 8 7 7 6 6 5 4 4 3 3 3 3 2 3 3 4 5 6 7 8 8 9 9
6 5 4 2 1 2 5 3 3 3 3 3 3 4 5 5 7 8 12 14 7 4 2 2 1 5 11 13 15 18 17 19 20 21 21 20 21 20 18 15 14 18 20 19 16 15 13 12 12 12 12 13 14 14 14 14 14 14 15 15 15 14 13 13 13 12 12 11 10 9 9 9 8 8 7 7 6 6 6 5 5 4 4 4 4 5 4 4 5 6 6 7 8 9 9 10 10
7 5 7 6 3 2 3 2 3 3 3 4 4 6 7 7 7 4 10 15 11 12 12 5 2 6 11 12 14 16 15 17 19 21 21 19 19 19 18 16 14 17 20 20 18 17 15 13 12 12 12 12 13 13 14 14 13 14 15 15 15 15 15 14 14 13 13 12 11 10 10 9 8 8 7 7 7 6 6 6 6 6 6 6 6 6 6 6 7 7 8 8 9 10 9 8 7
8 5 6 6 4 4 1 1 2 2 3 4 4 7 8 7 7 7 12 16 11 15 18 12 6 5 9 12 14 16 16 17 18 20 20 18 17 16 17 17 15 15 18 22 20 18 17 15 14 13 13 12 12 12 13 14 13 14 14 15 15 15 15 15 14 14 13 13 12 11 10 10 9 8 8 7 7 7 7 7 7 7 7 8 8 8 8 8 8 9 9 9 10 9 6 6 7
8 8 5 5 5 6 3 4 4 2 3 4 5 10 8 4 7 10 14 15 11 12 16 15 12 8 8 11 15 17 17 17 18 20 20 19 17 17 18 18 18 16 17 21 23 21 19 18 17 15 14 14 13 12 13 13 14 14 14 15 15 15 15 14 14 13 13 13 12 12 11 11 10 10 9 9 9 8 8 8 8 8 9 9 9 10 10 10 10 10 9 8 7 7 5 6 8
4 6 4 5 7 6 5 7 7 5 5 6 8 11 8 3 3 6 5 6 9 11 12 13 13 12 10 11 14 16 17 18 18 19 20 20 19 19 19 19 18 18 17 18 22 23 21 20 19 18 17 16 15 13 13 13 14 14 14 15 15 15 14 14 13 13 13 12 12 12 12 12 11 11 11 11 10 10 9 9 10 10 10 11 12 13 12 11 11 9 7 7 8 8 8 7 8
5 4 3 7 9 9 8 9 9 8 6 7 7 11 11 4 5 9 5 3 6 9 11 11 13 12 11 12 13 16 17 17 18 19 21 21 21 20 20 20 19 19 19 19 20 22 23 21 20 21 20 18 17 15 15 14 14 14 15 15 14 14 14 14 13 13 12 12 12 12 12 12 12 12 12 12 12 12 11 11 11 11 12 12 12 12 12 10 11 9 9 10 10 10 9 8 9
4 3 3 6 7 9 11 9 8 7 6 6 3 9 12 9 10 14 13 10 5 6 10 11 12 12 12 13 14 16 17 17 19 21 22 22 21 21 20 21 21 20 21 21 20 20 22 23 22 22 22 21 19 18 17 16 16 16 15 15 15 15 15 15 14 14 13 13 13 13 13 13 13 13 13 13 13 13 13 12 11 11 12 13 10 11 11 10 11 9 9 11 11 9 8 8 8
5 4 3 3 5 7 9 9 7 7 6 7 4 7 9 10 15 15 12 11 7 7 9 10 12 12 12 14 15 17 17 19 20 21 22 22 22 22 21 21 22 22 22 23 23 22 22 23 24 24 23 22 20 20 20 19 18 18 17 17 17 17 16 16 16 16 16 16 16 15 15 15 15 15 15 15 16 15 15 14 13 11 11 12 13 12 11 9 9 9 8 9 8 8 7 7 7
5 5 2 3 5 3 6 6 7 7 7 9 7 7 8 7 6 9 9 8 7 8 9 10 11 12 13 14 16 17 18 20 21 20 20 21 23 23 22 21 21 23 23 24 25 24 24 24 24 24 24 23 22 22 22 21 20 20 19 19 19 19 19 19 18 18 18 18 18 18 17 17 17 17 17 18 18 17 17 17 15 12 9 10 13 11 9 8 8 8 8 8 7 7 7 7 8
5 4 4 5 5 2 5 4 6 5 4 12 11 6 7 9 3 7 4 7 7 9 10 11 12 13 14 14 16 16 17 20 21 21 21 21 22 23 22 22 22 22 23 25 26 25 24 25 26 26 25 24 23 23 22 22 22 22 21 22 22 21 21 21 20 20 20 20 20 20 20 19 18 18 18 19 19 19 19 17 13 11 10 9 9 9 9 9 8 7 7 8 7 6 6 6 7
5 5 5 7 6 4 3 3 5 5 3 11 14 7 2 6 5 4 1 5 7 10 11 11 12 12 13 13 15 16 17 19 21 22 22 21 22 22 22 22 22 22 22 23 25 26 25 25 27 27 26 26 25 24 24 24 24 24 24 24 24 23 23 23 23 22 22 22 22 22 22 21 20 19 19 19 19 19 19 17 11 9 10 9 8 8 8 7 7 6 6 7 6 5 4 5 5
6 6 6 6 7 5 3 3 4 6 5 9 13 11 6 5 6 4 2 3 6 8 10 11 11 11 12 12 14 16 17 18 20 21 21 21 21 21 22 21 21 21 22 22 23 24 24 24 25 27 28 28 27 26 26 25 25 25 25 25 26 25 26 26 25 25 24 24 25 24 24 23 21 21 21 20 20 20 19 17 12 11 12 12 11 9 9 8 7 7 5 5 6 5 4 4 4
6 7 6 6 6 8 7 3 5 8 7 8 11 12 11 10 11 12 8 6 7 8 9 10 10 9 10 11 14 15 17 19 19 18 18 21 21 20 21 21 21 21 21 22 22 23 24 24 25 26 29 29 29 29 28 27 26 27 27 27 28 28 29 28 27 27 27 27 27 26 27 26 24 23 22 21 21 21 21 18 15 14 14 13 11 10 9 8 8 7 6 5 7 8 6 5 5
7 7 7 7 6 8 8 3 6 7 6 8 12 12 11 11 12 15 14 10 10 11 11 10 10 9 9 11 13 14 18 19 19 18 18 19 20 20 20 20 21 20 21 22 22 23 24 25 26 27 29 29 29 30 30 30 29 29 29 29 30 31 32 31 30 29 29 28 28 27 27 27 25 25 24 23 23 23 23 21 16 15 14 12 12 11 10 8 8 8 7 7 7 8 9 8 7
8 8 7 8 7 5 5 5 6 5 5 8 12 13 13 12 11 14 16 11 10 11 13 14 13 12 12 12 13 14 16 16 16 19 20 19 19 19 19 19 20 21 21 22 23 24 24 26 27 28 29 30 31 32 32 33 32 32 32 32 33 34 34 33 32 31 30 30 29 27 27 26 25 26 26 25 25 25 25 23 18 15 15 14 14 13 11 9 9 9 10 10 10 11 11 9 8
9 8 5 6 7 4 3 5 6 5 4 7 11 12 13 13 11 13 16 12 11 14 14 15 16 15 14 13 14 15 16 15 14 17 19 19 20 20 20 19 20 21 21 22 23 23 23 24 27 27 29 30 32 33 34 34 35 34 34 33 33 34 35 34 33 33 31 31 31 30 29 28 27 27 28 28 28 27 26 24 20 18 17 16 16 15 14 13 12 12 12 12 13 13 12 12 11
8 6 5 6 6 4 2 5 6 5 4 6 7 9 11 12 13 14 17 16 16 17 15 16 16 15 15 14 13 13 16 18 17 17 17 18 20 21 22 22 21 21 21 22 23 24 24 25 26 27 28 30 32 33 34 35 36 35 34 34 34 34 34 35 34 34 32 31 32 32 32 31 30 30 29 28 29 28 26 24 22 21 20 19 18 18 17 16 15 15 14 14 13 12 12 12 11
9 7 7 6 6 6 4 5 7 6 5 5 6 7 9 11 12 13 18 20 20 18 16 16 16 16 16 15 13 13 16 19 19 19 18 17 19 21 23 23 22 22 23 24 25 25 27 27 27 27 28 29 30 32 33 34 35 35 35 35 35 35 34 35 35 35 34 33 33 34 34 34 33 33 31 29 28 28 27 25 24 23 22 21 20 20 19 18 18 17 15 15 14 13 12 10 9
11 11 10 6 7 7 3 3 5 6 6 5 6 7 8 11 14 13 15 19 21 21 19 17 16 17 20 19 18 20 21 21 21 20 20 20 19 20 21 22 22 23 24 25 25 26 27 28 28 28 28 29 29 30 31 31 32 34 35 36 35 34 34 35 37 37 37 36 35 35 34 34 34 33 32 30 28 27 27 27 27 25 24 23 23 22 21 20 19 17 15 15 15 14 12 10 10
11 13 12 9 6 6 3 3 3 5 5 3 3 6 4 5 10 11 10 14 17 19 20 19 17 18 22 23 24 26 26 25 23 21 21 22 21 20 21 21 22 23 23 23 24 25 27 27 27 28 28 29 30 30 30 29 30 33 35 37 37 36 37 38 39 39 38 38 37 36 35 35 34 33 32 31 28 27 28 27 28 28 27 26 26 25 23 21 19 18 17 16 16 14 12 13 14
10 9 12 12 7 4 4 4 3 4 2 2 2 5 5 3 5 6 7 10 14 15 16 18 19 19 20 23 27 29 28 27 26 23 21 22 23 23 23 24 24 24 23 24 24 26 27 28 28 28 29 29 30 30 31 30 30 32 34 35 37 38 39 40 40 39 38 38 37 36 36 36 35 34 32 31 29 28 28 27 27 28 28 27 27 26 24 22 21 19 19 19 18 16 14 14 15
5 3 9 13 8 5 5 4 5 3 4 2 3 3 6 7 5 6 7 9 12 13 13 14 18 20 20 22 27 31 30 29 29 27 25 24 24 24 24 25 25 24 25 27 26 26 27 29 30 30 30 30 31 31 31 31 31 32 33 34 35 37 38 39 39 38 38 38 36 35 36 36 35 34 33 32 31 30 30 29 28 28 28 27 26 25 24 24 23 22 22 22 20 18 16 15 16
1 4 6 9 7 5 4 4 5 2 4 5 5 3 5 7 4 5 8 10 12 14 15 14 17 20 21 23 28 32 33 32 31 30 29 27 26 26 25 26 26 26 27 27 27 27 27 29 31 32 32 31 31 31 31 32 32 32 34 35 36 37 38 38 37 37 37 37 37 36 36 36 36 34 33 32 32 32 32 30 28 28 28 27 27 26 25 24 25 24 23 23 20 20 19 16 18
2 5 6 5 3 2 2 4 4 2 4 7 5 5 4 7 5 5 7 10 12 12 12 14 18 21 21 24 30 34 34 33 32 31 31 31 30 29 28 29 29 29 29 28 27 27 28 29 30 32 33 33 32 32 33 33 33 33 34 35 36 38 39 39 37 36 35 35 36 36 36 36 36 35 33 32 32 32 32 29 28 28 27 29 31 29 26 26 25 24 23 21 20 21 21 20 21
9 8 7 6 3 2 1 2 1 3 6 6 7 8 4 5 5 5 6 5 7 9 10 12 16 19 20 21 26 30 30 31 31 30 31 32 32 31 31 31 31 31 31 31 30 29 29 30 31 32 33 34 34 35 35 34 34 34 35 35 36 38 39 40 39 38 36 34 34 34 34 35 35 34 33 33 33 33 32 30 28 27 27 31 34 30 27 27 25 24 24 23 22 22 23 23 24
10 7 6 5 3 2 2 2 1 5 6 2 5 9 9 8 4 3 2 1 4 8 8 9 10 14 17 17 21 25 26 26 27 26 26 27 27 26 26 27 28 29 29 29 30 29 29 30 32 33 33 34 36 37 37 36 35 36 36 36 36 37 38 39 40 40 38 36 35 33 32 33 33 33 33 33 34 34 33 31 29 28 28 31 33 29 25 26 26 25 26 26 26 24 24 25 25
7 6 7 6 4 2 5 5 3 7 5 2 3 4 7 10 7 8 9 7 9 9 8 10 10 12 13 9 11 17 20 21 21 20 19 18 18 18 19 20 21 23 24 24 25 26 27 28 31 33 34 35 36 38 39 37 36 36 37 37 37 36 37 38 38 39 38 37 36 34 33 33 33 33 33 33 34 34 33 33 31 29 30 30 29 26 26 26 26 26 28 28 27 25 25 26 26
6 7 7 6 5 4 7 7 5 5 2 4 4 2 6 8 5 11 15 12 12 12 12 13 13 12 10 7 9 12 14 15 15 15 15 14 15 16 17 17 18 19 19 20 20 21 23 25 28 30 33 35 38 39 39 38 37 36 36 37 37 37 37 36 36 36 37 37 37 36 35 35 35 35 34 33 32 32 32 32 31 29 29 29 26 25 27 27 26 28 31 30 28 27 27 27 29
7 6 6 6 6 5 5 5 5 3 3 4 4 2 5 3 1 4 8 7 9 9 10 10 11 13 15 17 19 18 16 15 15 16 17 17 18 19 19 18 18 19 18 19 19 19 20 22 25 27 30 33 37 40 40 39 39 38 37 37 37 37 36 35 33 32 34 36 36 36 35 35 35 35 33 32 31 30 31 30 29 28 28 28 27 26 28 27 26 29 32 33 31 30 28 28 30
7 7 8 8 7 5 2 1 1 0 1 4 6 4 5 3 4 6 6 6 9 9 8 9 10 13 16 20 23 22 21 19 18 19 19 20 20 20 21 21 21 20 19 19 19 20 20 21 23 25 27 28 32 37 39 40 40 40 39 38 37 36 35 33 31 31 33 34 34 35 35 34 34 33 32 32 31 30 29 29 27 27 28 28 27 28 29 28 28 30 33 35 33 31 30 30 32
6 9 9 4 1 4 4 2 2 1 6 5 6 4 5 3 7 9 9 8 9 9 8 9 10 9 10 14 18 19 18 16 16 17 18 18 20 21 22 22 23 23 21 20 21 21 20 20 20 22 24 26 28 31 35 38 39 39 39 38 36 35 34 33 31 31 32 32 32 34 34 33 33 32 30 31 31 29 28 27 27 27 28 28 27 28 29 30 30 33 35 34 32 31 31 31 31
5 9 8 5 4 3 4 3 2 3 7 4 5 7 5 3 4 6 12 13 11 11 9 9 9 9 9 12 13 11 10 11 13 15 16 17 18 20 20 21 24 25 24 23 23 23 22 20 19 20 21 23 24 26 29 31 33 34 34 34 34 34 33 32 31 31 31 31 32 33 33 33 32 31 29 29 29 27 27 26 27 27 28 28 27 28 29 30 32 34 34 32 30 31 32 30 27
2 4 6 5 2 4 5 4 3 4 7 5 4 7 7 7 5 4 9 14 13 11 11 10 10 9 9 10 9 7 9 12 14 15 16 16 16 16 17 19 21 24 25 25 23 22 20 19 18 17 17 18 19 21 23 25 27 29 30 31 32 32 32 32 31 31 32 33 34 34 33 32 31 30 29 29 28 27 28 27 27 28 28 28 28 29 29 29 30 31 31 31 31 33 34 30 26
1 1 6 6 4 3 5 5 3 3 6 5 3 4 5 8 9 7 8 10 9 9 8 10 12 11 10 8 7 8 11 12 14 15 16 15 14 15 15 16 16 18 20 21 21 19 17 15 14 13 14 14 15 17 18 20 21 23 26 27 28 29 30 31 31 32 33 34 34 34 33 32 31 29 29 29 28 29 30 29 28 28 29 29 30 30 28 28 30 30 30 31 32 33 33 30 28
6 6 9 7 3 1 2 5 4 3 5 5 5 6 3 3 7 10 12 9 8 7 4 5 8 8 8 7 7 9 11 11 13 13 13 13 13 13 14 14 13 13 14 15 15 15 14 13 12 12 12 12 13 14 15 16 17 19 21 22 24 26 27 29 30 31 32 33 33 34 34 33 31 30 30 30 30 30 30 29 29 29 30 32 33 30 27 28 30 30 30 31 32 33 31 30 28
10 9 8 9 7 4 3 6 6 5 4 3 4 6 3 3 4 7 10 9 6 4 4 5 5 6 6 6 7 9 10 10 10 10 10 10 10 10 10 10 10 10 10 11 11 12 11 11 11 11 11 11 11 12 13 14 15 17 18 19 21 23 25 27 28 29 30 31 32 33 33 33 32 32 31 30 31 30 29 29 29 29 29 32 34 31 28 27 28 29 31 32 33 33 32 31 29
Wind_Direction
292 299 315 317 334 320 282 278 266 217 250 264 95 131 104 74 81 141 135 137 142 111 81 113 118 110 103 2 25 30 36 42 24 47 121 128 140 145 144 147 149 145 141 140 140 139 151 156 155 151 137 136 138 136 130 120 110 92 62 35 23 39 76 105 111 114 121 131 141 153 167 179 188 195 207 182 95 89 84 86 84 80 78 78 80 81 82 83 81 80 80 79 79 78 78 77 74
285 299 314 317 324 306 282 264 273 220 233 162 100 60 96 116 185 162 135 127 93 106 126 133 135 120 0 351 349 350 53 48 50 79 107 135 138 145 146 143 146 145 137 128 129 140 152 157 154 147 141 140 141 138 129 124 117 89 49 25 23 64 99 104 107 109 112 118 127 135 145 157 162 157 140 114 97 94 89 88 87 84 84 84 86 85 83 83 84 83 82 81 80 78 78 76 74
287 309 315 317 301 273 276 250 267 284 263 105 96 89 114 159 171 118 95 83 88 115 132 130 149 140 296 207 204 323 66 62 76 95 120 133 141 149 144 143 149 151 140 127 126 144 153 157 153 145 146 143 142 140 133 132 117 70 41 31 40 87 103 103 110 112 113 115 119 124 124 124 121 115 109 100 94 94 92 91 92 92 91 90 90 89 87 87 87 85 85 82 80 79 77 76 75
293 305 312 307 282 249 256 245 271 297 303 38 85 110 140 169 127 94 85 87 101 132 138 151 165 166 253 47 33 38 96 86 89 105 123 134 167 151 143 152 149 152 143 132 133 144 152 154 150 145 146 144 144 140 142 144 102 51 45 41 59 95 105 105 113 114 115 113 114 118 114 108 104 101 103 99 93 97 99 94 92 94 92 90 89 91 92 90 89 87 86 83 81 80 78 77 76
309 300 310 302 284 274 281 274 270 282 15 16 44 106 146 141 116 105 101 100 111 139 152 182 169 163 225 8 2 15 92 106 106 112 122 151 188 154 148 153 142 150 139 127 133 143 150 150 145 146 147 145 144 146 153 138 90 65 53 52 67 93 109 113 114 110 110 107 104 103 98 97 98 100 103 101 95 97 104 104 102 101 98 96 95 96 95 91 91 88 85 83 82 80 79 78 77
337 301 299 294 286 314 266 253 238 222 45 357 16 86 138 124 120 121 117 109 113 128 167 199 185 144 191 182 39 45 93 130 116 129 138 164 174 156 150 143 139 148 131 125 136 146 149 146 144 146 148 148 149 158 160 121 90 73 54 53 67 96 111 116 114 107 110 105 95 92 94 97 98 103 104 102 99 96 99 105 108 107 103 101 99 96 94 90 88 86 85 83 82 80 79 79 78
327 292 281 276 249 248 253 251 270 93 61 4 22 67 123 128 129 136 139 134 141 151 185 191 214 220 161 153 138 100 152 125 111 148 172 171 156 154 144 136 145 147 131 129 140 151 151 146 146 148 152 157 159 168 153 107 80 65 58 52 60 93 105 113 117 114 113 103 94 96 103 109 106 106 108 108 103 96 98 103 105 105 104 106 105 99 93 89 87 86 86 86 84 82 80 79 77
295 295 287 291 243 202 263 266 311 47 65 41 44 49 78 132 145 151 159 157 160 161 181 175 217 246 132 123 129 120 177 146 144 161 184 172 151 148 137 139 151 147 134 133 150 155 152 150 152 153 156 164 167 167 144 113 52 43 71 58 58 77 91 113 124 123 114 105 104 108 111 114 113 110 113 116 108 103 106 108 108 109 112 114 111 103 96 92 90 90 90 89 87 83 81 79 76
267 277 264 274 264 211 245 247 99 72 82 81 93 87 89 150 160 165 167 151 153 160 176 174 208 255 94 133 104 95 142 148 155 159 162 156 150 145 137 146 154 149 141 141 157 153 152 159 158 158 162 169 168 165 157 152 293 307 73 65 61 66 78 112 131 133 121 113 112 113 115 114 115 113 115 120 115 110 109 108 114 117 118 116 112 106 100 98 96 94 93 90 87 84 81 79 76
240 250 270 270 268 239 217 213 136 105 95 84 92 119 150 167 171 178 174 155 157 167 156 160 209 250 8 131 107 119 146 139 153 154 148 151 151 147 143 152 159 153 143 145 155 154 159 164 161 160 165 168 163 161 164 190 260 211 94 74 67 62 75 109 132 139 130 117 110 115 119 116 115 115 116 120 117 112 110 110 116 119 117 115 112 108 105 104 101 98 94 91 88 84 80 77 74
236 217 269 275 247 239 216 186 154 118 100 115 113 123 158 169 178 184 179 158 163 170 147 170 209 220 242 120 94 150 167 145 152 153 152 158 151 147 154 156 158 153 143 149 157 161 162 163 166 164 166 168 162 158 149 175 191 183 151 88 84 76 82 109 126 135 136 121 115 124 123 117 115 116 116 117 116 114 115 116 119 120 120 117 115 112 110 107 104 101 96 91 87 83 79 73 69
248 204 219 252 251 256 353 335 141 120 123 137 120 131 159 169 178 182 186 169 173 192 168 189 189 169 216 161 108 138 158 146 152 162 158 160 153 151 160 158 157 152 147 153 158 163 159 161 170 173 176 174 169 163 155 176 173 174 170 132 109 95 105 130 134 137 140 129 123 127 121 117 114 114 115 115 117 116 115 115 117 121 123 123 120 117 115 112 109 104 97 92 86 82 76 71 66
250 251 229 246 271 316 354 303 109 151 155 100 87 126 161 172 184 185 189 181 185 196 157 176 161 231 218 118 122 139 148 147 154 168 161 158 158 155 159 162 162 157 151 153 156 161 160 164 171 182 186 183 183 177 181 189 170 172 171 153 121 110 138 151 155 146 143 132 123 123 120 120 117 115 116 116 115 114 114 115 117 121 125 126 123 122 120 117 112 105 98 92 86 80 74 68 61
250 281 258 265 280 286 279 270 192 200 117 76 72 128 164 172 191 194 196 196 179 159 141 168 205 236 205 146 156 157 154 153 161 170 162 161 161 158 162 166 169 167 159 156 159 160 164 170 175 186 190 192 196 186 186 180 166 170 170 153 137 141 155 161 165 151 144 137 129 129 126 124 122 121 121 119 116 113 114 115 118 121 123 124 125 126 122 117 111 104 97 90 82 76 68 62 56
272 276 253 269 243 227 221 277 254 222 68 64 65 137 171 171 182 215 229 234 119 142 179 189 206 221 211 175 146 160 165 157 164 170 163 167 165 162 165 167 172 174 165 162 166 162 168 174 180 188 185 194 205 195 184 176 170 166 167 157 151 168 163 161 161 151 146 141 136 134 130 128 126 126 125 123 121 119 117 118 119 120 122 124 126 126 122 116 108 100 91 84 75 68 60 55 50
308 266 240 252 240 213 182 188 224 229 61 65 66 147 185 182 181 228 240 291 84 174 210 193 201 211 33 51 104 154 177 165 165 171 169 172 168 166 167 166 171 175 168 168 175 170 174 176 181 186 180 188 205 202 187 185 179 163 168 163 160 174 168 161 153 151 149 146 142 137 134 132 132 130 128 126 127 127 125 124 123 122 123 123 126 125 118 111 103 94 85 78 68 61 54 47 43
305 260 231 234 227 203 172 175 175 191 64 68 92 174 203 181 180 237 238 239 251 184 197 180 203 206 80 130 128 155 186 178 173 174 177 179 171 172 171 168 174 178 171 171 181 180 183 184 182 184 180 186 194 196 195 195 188 176 176 167 168 174 172 167 158 156 155 152 147 142 140 138 139 136 134 135 135 134 132 130 128 127 126 126 128 124 116 107 96 86 79 70 61 53 42 39 40
250 246 224 231 226 183 84 72 66 65 60 58 75 181 222 195 167 216 237 231 231 204 200 204 216 212 215 209 141 163 194 185 181 180 183 187 179 176 175 176 180 182 177 174 181 184 188 190 189 192 188 186 187 186 194 198 191 188 184 173 175 175 175 174 166 166 162 158 153 149 147 146 149 147 145 147 145 141 138 136 134 132 132 133 131 122 111 100 87 79 69 58 49 36 23 25 21
203 255 239 240 110 71 58 60 58 50 52 51 64 134 224 241 147 189 225 231 216 219 217 203 217 210 215 229 165 174 194 181 184 186 186 191 186 180 179 184 185 186 185 180 182 185 187 189 193 199 199 198 194 185 187 193 188 188 188 180 179 178 180 178 172 171 168 164 160 157 155 160 162 155 154 153 150 149 148 146 143 144 143 141 134 118 98 84 70 61 51 37 24 11 12 12 358
149 213 251 240 75 78 71 58 53 42 24 31 59 74 227 239 216 185 229 248 226 230 230 202 215 201 199 221 186 177 188 181 186 187 185 192 192 187 183 188 192 192 192 187 187 186 187 189 191 197 200 205 202 191 187 187 186 189 188 182 180 181 181 179 177 175 173 170 167 162 164 174 170 158 160 161 159 159 159 157 158 158 156 157 148 130 69 49 31 31 22 3 353 356 359 350 346
167 191 244 79 90 106 89 62 46 33 3 5 25 6 234 224 222 223 235 251 236 235 238 217 227 202 189 209 191 182 187 184 188 189 190 195 197 196 188 190 196 198 198 194 192 191 191 192 191 194 196 200 202 196 191 188 189 191 186 182 181 180 181 181 180 179 177 174 172 169 170 175 171 164 168 170 171 170 171 172 175 177 177 188 207 249 300 343 343 348 342 340 337 341 340 330 336
190 196 208 74 123 126 93 78 37 15 346 338 316 313 325 331 236 233 234 242 250 282 251 218 248 203 195 212 197 191 192 186 191 194 197 198 200 202 193 193 200 203 205 201 198 197 197 199 196 195 196 199 201 199 197 194 194 192 186 183 182 180 181 182 181 182 180 177 177 173 169 172 174 174 176 181 183 180 186 189 194 204 213 226 244 264 279 298 308 319 321 325 323 323 324 320 322
208 208 201 168 218 107 96 106 30 358 318 319 321 338 322 286 260 238 231 239 258 308 293 200 262 176 198 218 204 204 201 194 199 201 202 201 202 205 197 196 206 210 210 206 204 203 202 206 204 200 201 203 204 202 198 198 199 193 188 185 184 182 182 182 182 183 182 181 181 175 169 174 180 182 184 191 195 196 201 207 215 224 235 245 256 266 272 285 294 302 306 310 312 310 310 313 314
221 214 200 197 187 159 102 102 14 351 298 317 324 315 294 273 282 261 234 242 250 262 261 247 229 172 199 223 217 218 215 208 210 207 207 206 206 208 201 197 207 219 218 212 211 210 207 210 211 207 206 207 207 204 198 198 198 193 190 188 188 185 183 184 183 184 185 184 183 181 177 179 184 189 194 198 204 209 213 218 227 235 243 250 259 267 272 281 286 292 299 300 302 303 306 313 315
224 219 195 186 184 205 172 188 309 330 274 302 301 290 285 273 293 283 254 252 243 246 253 247 230 200 205 220 223 220 217 216 212 209 210 208 208 207 205 203 203 216 223 218 216 216 214 213 215 215 211 211 209 205 200 196 195 194 193 191 192 190 187 187 188 188 188 188 189 190 188 188 191 197 204 208 215 220 223 230 236 243 252 256 262 268 271 277 283 287 291 295 300 303 309 313 310
216 220 196 183 204 211 213 246 249 223 254 290 285 285 283 271 295 279 257 251 230 225 242 242 230 224 212 207 216 218 216 217 214 214 214 209 208 208 210 211 205 209 221 223 220 219 220 218 218 220 217 215 212 207 203 200 197 197 197 196 196 194 192 193 194 195 195 197 198 198 199 200 200 205 211 218 224 229 233 239 246 254 259 263 267 270 271 273 278 284 286 291 296 297 303 305 304
172 209 209 218 239 232 226 246 243 240 255 254 265 285 283 255 273 265 245 223 211 207 221 230 222 218 214 203 208 214 215 221 221 215 211 211 213 213 213 214 211 209 213 220 222 222 222 222 221 222 223 220 218 214 208 206 204 203 203 202 200 198 198 200 201 203 204 206 206 206 208 209 210 212 217 222 228 235 241 244 250 259 264 270 270 269 272 273 273 278 278 275 278 284 293 293 295
127 174 217 232 244 243 234 239 241 248 250 228 248 286 277 236 220 246 254 219 204 201 205 212 211 206 207 206 206 211 213 216 217 212 213 222 225 224 221 219 217 213 212 214 220 223 223 224 225 225 226 225 223 221 217 213 212 210 209 209 208 206 207 209 211 212 213 215 217 215 216 218 221 222 225 229 233 238 243 244 247 255 264 272 272 266 267 273 277 281 282 282 282 284 287 286 293
144 172 229 217 227 241 229 223 222 227 224 192 225 285 265 227 222 240 242 240 225 195 202 205 206 203 201 203 207 217 217 209 211 218 225 230 232 232 231 229 225 221 220 220 220 222 222 223 225 228 229 227 225 226 225 222 220 219 217 218 219 218 219 221 223 224 225 227 228 226 227 230 231 234 237 238 240 243 247 249 249 253 260 263 266 268 272 280 285 284 286 291 293 292 292 295 296
168 182 246 211 226 240 208 197 190 205 209 166 172 267 257 234 229 224 215 220 215 196 205 206 204 203 200 201 209 221 223 216 219 231 234 232 232 233 235 234 233 229 226 227 227 226 225 224 225 228 230 230 228 229 230 228 227 227 225 226 228 228 229 231 232 234 235 235 236 235 235 237 238 241 245 247 249 251 253 257 257 254 255 258 261 270 278 282 282 281 282 285 291 296 293 294 295
173 160 216 228 238 202 146 176 187 202 201 168 186 248 255 252 206 172 182 201 202 209 215 209 203 204 204 205 212 220 225 227 230 236 238 237 235 234 234 233 235 235 230 228 231 231 229 227 226 227 230 232 231 232 233 233 233 233 232 233 234 235 235 237 238 239 242 242 242 241 239 241 242 244 247 251 254 255 256 260 260 255 251 257 265 270 272 270 271 277 281 276 277 285 285 289 296
180 173 200 209 230 175 133 165 192 216 205 180 199 238 245 252 194 121 175 209 206 230 230 217 211 207 208 211 216 218 222 232 234 233 237 241 238 237 236 233 235 239 235 230 231 232 230 229 229 228 229 231 233 234 235 236 237 236 236 237 238 239 239 241 241 242 244 246 247 246 242 241 243 246 248 250 254 255 256 257 256 257 256 254 264 269 268 270 268 265 270 273 271 274 279 286 293
187 206 215 196 207 214 161 163 203 233 216 192 212 236 213 229 216 129 227 232 212 234 240 228 220 212 212 213 216 218 219 229 234 233 235 240 240 239 239 237 237 240 238 232 230 233 232 230 231 230 229 231 233 234 235 236 238 240 239 239 240 241 241 243 244 244 245 246 248 249 247 244 243 247 249 250 252 254 255 254 251 255 257 255 260 262 261 265 265 262 269 280 285 277 273 287 293
183 203 226 206 205 227 203 155 190 208 218 216 221 237 246 233 230 214 223 228 214 232 243 237 228 219 217 216 219 223 222 227 236 237 235 238 241 240 239 240 240 240 238 233 229 233 233 233 234 232 230 231 232 233 235 235 237 239 241 242 242 242 241 243 244 245 245 246 248 249 250 248 246 248 250 251 252 253 253 252 249 250 254 259 263 260 257 257 257 261 261 267 278 272 262 273 276
193 190 209 211 208 234 236 178 160 183 212 235 227 233 244 249 254 252 234 203 215 237 244 243 237 228 222 222 225 230 230 232 240 246 239 238 242 242 240 240 240 239 238 236 231 231 233 234 235 234 233 232 232 233 233 234 234 236 239 241 242 242 240 239 241 243 244 247 248 249 250 250 249 249 250 252 253 253 254 254 253 252 255 259 260 257 253 254 259 262 262 261 266 271 270 264 278
219 195 202 216 213 232 237 166 146 181 207 229 234 238 243 241 245 254 244 211 217 239 244 245 242 236 229 227 228 232 239 242 247 251 246 240 241 243 243 240 239 239 238 239 237 234 233 234 234 234 235 234 234 234 234 233 233 233 235 237 239 241 240 238 238 240 242 245 246 247 248 249 249 250 251 251 253 255 257 260 258 254 253 254 256 257 254 253 261 267 271 273 264 269 278 281 300
238 217 211 224 230 235 216 158 137 174 220 231 235 242 248 246 239 249 247 218 207 230 238 242 243 242 237 232 233 237 246 252 254 252 248 244 241 242 244 241 240 239 239 239 239 239 237 236 237 237 238 236 235 236 236 235 234 234 234 235 237 240 242 241 239 240 241 244 246 248 250 251 252 254 255 255 255 256 258 260 258 253 251 251 253 259 261 257 257 261 266 271 265 263 271 275 290
235 224 211 221 232 241 185 156 151 164 228 242 237 243 250 252 247 248 248 232 222 231 236 239 242 244 241 235 235 239 250 256 254 253 250 245 242 241 242 242 241 241 242 242 242 242 241 241 241 241 241 240 238 238 238 240 239 238 238 239 240 243 245 246 245 244 244 247 250 253 254 257 259 260 261 260 257 255 255 256 256 256 256 255 253 255 259 260 260 260 263 267 267 266 264 260 270
227 221 215 229 220 217 188 165 173 181 223 249 244 251 258 257 253 248 246 244 243 240 237 238 239 241 239 238 237 236 248 255 254 254 252 245 241 241 241 241 242 243 244 246 246 245 243 242 242 242 242 242 241 240 239 242 244 245 244 244 245 247 249 251 251 251 250 251 252 255 256 257 258 259 260 259 256 252 251 252 254 256 259 258 257 255 255 260 262 262 262 261 261 264 262 253 257
228 222 216 232 205 208 228 184 183 198 228 274 288 277 272 263 256 250 242 242 247 243 238 238 235 236 237 238 238 234 244 255 255 252 252 249 242 239 240 240 241 242 242 243 244 244 244 242 241 241 242 243 244 244 243 243 246 248 248 247 248 249 250 252 254 254 252 250 251 252 254 254 254 255 255 254 253 250 247 248 251 252 256 258 257 255 254 257 261 261 260 256 254 254 253 248 245
224 224 222 230 203 213 246 151 178 215 226 256 286 278 268 251 241 241 235 232 239 241 238 234 227 232 241 242 242 244 248 254 256 253 251 251 247 241 240 241 241 242 243 244 244 245 246 245 244 243 243 244 245 247 247 245 245 247 247 247 247 247 247 248 250 251 251 250 250 250 251 253 253 253 252 251 251 251 247 246 248 249 251 254 255 253 252 256 259 259 255 252 252 247 243 247 245
221 222 225 235 224 217 209 151 193 249 232 198 260 273 269 240 232 235 231 225 230 231 227 224 220 228 240 244 247 251 253 254 255 255 249 250 250 245 242 241 243 246 248 248 247 246 246 246 245 244 243 244 245 246 247 246 245 246 246 246 246 246 247 247 248 250 251 252 252 252 252 253 254 254 253 251 249 250 250 248 247 248 248 249 251 251 251 254 255 254 249 244 246 246 243 249 253
227 212 213 228 242 226 207 206 230 266 283 143 223 270 277 295 268 246 232 229 232 228 220 217 218 221 228 236 244 249 250 251 253 253 249 249 251 248 245 245 247 252 253 251 248 246 245 244 243 243 243 243 245 246 247 247 246 245 247 248 250 250 250 251 252 252 253 254 255 255 254 253 254 255 255 254 250 249 251 249 247 249 249 248 250 252 251 249 249 247 243 241 243 246 246 248 254
231 153 186 211 225 218 213 230 239 282 336 262 201 244 278 285 273 243 227 229 234 231 227 221 218 218 216 223 237 244 245 247 249 251 250 250 252 252 251 251 252 253 254 252 249 248 247 244 243 242 242 243 244 246 247 248 247 247 248 249 251 252 252 253 253 253 254 255 254 254 255 256 255 255 255 255 253 250 249 249 249 250 250 249 249 250 248 246 245 242 240 242 243 244 246 247 252
238 96 161 192 210 212 207 236 246 297 337 262 203 155 260 271 256 229 223 224 231 232 234 231 224 221 217 220 233 242 245 245 245 248 251 251 252 253 254 255 256 255 255 254 252 251 249 247 245 243 242 243 244 245 246 247 248 248 249 250 251 252 253 254 253 253 254 254 254 253 254 257 257 255 255 255 254 251 250 249 249 249 249 249 249 248 245 242 240 238 239 242 241 242 247 242 244
141 126 131 133 165 172 181 249 261 271 268 255 220 170 242 275 265 234 224 224 231 235 237 235 230 226 221 222 232 241 244 246 245 245 248 251 252 253 255 255 257 258 258 258 254 250 248 246 245 243 242 242 244 245 245 247 248 247 248 249 250 251 253 254 253 253 252 253 254 253 253 256 257 256 255 254 251 250 250 249 247 246 243 245 250 249 244 240 238 239 243 243 238 242 249 241 238
129 135 126 117 134 125 152 250 287 264 255 248 214 198 221 278 265 225 223 220 220 232 240 239 235 233 227 222 228 236 239 242 245 244 244 248 250 252 254 254 256 258 258 258 256 252 248 246 243 242 241 240 242 244 245 246 248 248 248 248 249 250 252 253 254 254 252 251 252 253 254 255 256 255 254 253 249 247 248 247 244 243 237 237 244 247 244 241 237 239 243 244 242 243 249 246 241
146 153 146 136 134 126 195 200 169 245 253 242 198 200 208 234 241 200 204 171 203 230 242 240 238 240 238 228 225 231 233 236 242 244 244 245 249 252 252 252 253 255 257 258 256 253 250 247 245 242 241 239 240 241 243 245 246 248 248 248 249 250 251 253 255 255 254 252 251 250 251 254 255 254 252 251 248 246 246 244 242 241 236 235 241 245 245 240 236 240 244 245 246 245 247 247 242
178 170 166 174 156 157 225 216 213 242 237 134 149 183 220 242 249 241 246 242 228 231 238 243 248 251 251 237 222 226 230 236 242 245 247 247 251 254 254 254 254 255 258 257 255 253 250 249 248 245 243 241 240 241 242 242 243 246 247 248 248 249 251 253 254 255 255 254 252 249 248 251 253 254 253 251 250 248 246 244 243 242 240 241 243 244 245 240 234 239 245 247 248 247 247 247 245
184 176 178 188 168 178 226 222 226 244 204 134 121 120 257 265 255 239 248 252 241 237 240 249 255 255 260 262 253 249 246 246 246 247 251 253 257 259 258 259 260 260 259 257 255 254 252 252 251 249 246 243 243 242 243 243 242 244 245 247 248 249 250 250 251 253 254 254 254 251 250 252 253 254 254 254 253 251 248 245 244 244 245 246 245 243 244 240 233 237 245 247 248 249 250 249 249
183 189 192 196 193 205 228 223 223 218 109 132 148 168 244 259 44 245 255 259 250 249 252 261 266 258 260 266 268 270 266 261 260 260 262 264 265 262 258 257 259 262 262 259 256 255 255 254 253 252 250 247 245 245 244 244 243 243 244 245 247 248 248 247 248 250 252 254 254 254 253 254 254 254 255 254 252 251 248 246 245 244 244 245 244 242 242 239 233 235 242 244 245 250 251 247 247
188 187 204 215 221 233 256 277 236 95 62 184 184 227 253 277 324 288 264 251 243 247 246 245 255 256 258 264 268 270 272 271 269 269 268 266 264 260 255 251 251 255 258 256 254 253 255 256 255 253 252 250 249 247 247 246 245 244 243 243 245 247 245 244 245 248 250 252 254 256 257 256 256 255 255 254 252 250 248 246 244 243 243 243 242 240 240 239 233 232 238 242 245 251 253 249 249
179 187 206 204 251 257 239 205 90 346 273 223 174 234 259 267 280 254 229 237 236 230 228 222 233 241 242 254 261 264 268 268 263 263 264 263 260 255 251 246 242 243 245 248 249 250 253 258 260 257 254 253 252 251 250 250 249 248 247 245 245 246 244 243 244 247 250 251 252 256 258 257 256 256 256 256 255 252 249 246 243 242 242 242 242 241 239 237 233 234 239 245 249 252 253 253 251
159 191 190 118 39 313 250 238 177 205 255 242 178 225 240 228 249 212 205 226 232 222 220 218 222 219 225 249 256 256 262 263 260 260 262 265 261 253 248 242 237 234 235 238 242 245 249 255 259 259 257 256 255 254 253 252 252 251 249 248 248 249 248 247 247 248 249 250 250 253 255 256 257 258 257 258 257 254 249 244 241 240 241 243 245 245 242 237 235 237 242 246 249 250 252 253 248
164 199 166 148 226 222 200 230 234 209 238 259 216 220 233 227 222 171 192 218 230 231 229 226 220 207 215 242 247 253 271 271 269 267 264 266 259 249 247 243 237 234 234 236 239 242 245 249 253 256 257 259 259 258 256 254 251 249 247 247 248 250 251 251 251 250 249 250 251 253 255 256 258 258 258 257 256 252 246 241 240 240 241 242 243 245 246 243 241 242 243 244 245 247 250 252 247
325 263 184 197 247 223 200 215 238 231 235 260 244 210 229 223 209 198 193 195 205 211 215 226 228 216 212 226 239 261 276 274 271 270 266 265 258 247 246 244 243 241 239 238 239 241 243 246 250 253 256 259 259 259 260 257 253 250 248 248 249 252 253 254 255 255 255 255 255 257 257 257 257 256 255 254 250 247 244 240 238 239 242 243 241 243 247 245 245 248 247 244 244 246 250 252 248
180 194 194 196 201 257 250 225 225 242 242 254 252 242 251 187 186 203 200 191 198 201 202 224 219 202 202 220 247 268 278 277 274 270 265 263 261 254 248 245 247 243 237 234 234 236 240 243 246 249 250 253 254 256 259 258 255 254 254 255 255 256 258 259 260 261 261 261 260 260 260 258 256 253 251 249 246 244 242 239 237 237 242 244 239 241 248 245 244 249 248 246 246 247 253 255 246
192 194 195 194 192 191 223 221 209 217 242 262 265 269 282 126 174 202 198 208 227 233 247 236 200 171 184 220 254 272 281 278 273 267 257 252 251 246 241 240 241 234 226 225 227 232 239 243 246 249 251 255 256 257 259 257 256 256 257 258 258 259 260 260 261 261 261 261 260 259 259 257 254 251 247 246 244 241 240 239 238 236 241 243 238 239 247 247 246 249 246 244 245 248 255 252 235